Lapse_Rate
5.8 5.7 5.7 5.7 5.6 5.5 5.5 5.4 5.4 5.4 5.4 5.4 5.4 5.3 5.2 5.3 5.3 5.5 5.6 5.7 5.6 5.7 5.6 5.5 5.6 5.7 5.7 5.8 5.9 6.0 6.0 6.0 6.1 6.2 6.3 6.2 6.2 6.1 5.9 6.0 6.0 6.0 6.1
5.8 5.8 5.8 5.6 5.5 5.4 5.4 5.5 5.6 5.4 5.4 5.6 5.4 5.3 5.3 5.4 5.6 5.6 5.6 5.6 5.9 5.7 5.6 5.7 5.8 5.8 5.7 5.9 5.9 5.8 5.9 6.0 6.0 6.2 6.1 6.2 6.3 6.1 6.0 6.1 6.0 6.1 6.1
5.8 5.8 5.8 5.6 5.5 5.5 5.5 5.5 5.5 5.4 5.1 5.1 5.4 5.4 5.3 5.3 5.6 5.6 5.6 5.8 5.7 5.5 5.7 5.9 5.9 5.9 5.9 5.9 5.9 5.9 6.0 6.0 6.0 6.0 6.1 6.3 6.5 6.3 6.1 6.2 6.0 6.2 6.2
5.6 5.6 5.7 5.8 5.7 5.7 5.6 5.5 5.3 5.1 4.8 4.9 5.2 5.3 5.4 5.5 5.5 5.5 5.5 5.6 5.7 5.7 5.9 6.0 6.0 6.0 6.1 6.0 6.0 6.1 6.1 6.0 6.0 6.1 6.1 6.3 6.3 6.3 6.2 6.1 6.1 6.1 6.1
5.7 5.7 5.7 5.8 5.8 5.7 5.8 5.7 5.0 4.7 4.7 5.1 5.3 5.3 5.5 5.4 5.5 5.5 5.6 5.7 5.8 5.9 6.0 6.2 6.1 6.0 5.9 6.0 6.0 6.0 6.1 6.1 6.1 6.3 6.3 6.3 6.2 6.2 6.2 6.2 6.1 6.0 6.0
5.7 5.8 5.8 5.8 5.8 5.7 5.8 5.7 5.3 5.0 5.2 5.6 5.6 5.3 5.4 5.5 5.6 5.6 5.6 5.8 5.8 5.9 6.0 6.1 6.1 6.0 5.8 5.8 6.0 6.0 6.1 6.1 6.1 6.1 6.2 6.2 6.2 6.1 6.1 6.2 6.2 6.2 6.1
5.7 5.8 5.9 6.0 5.8 5.8 5.9 5.7 5.7 5.6 5.5 5.6 5.5 5.5 5.5 5.5 5.5 5.5 5.6 5.8 5.8 5.9 6.0 6.0 6.0 6.0 5.9 6.0 6.0 6.2 6.2 6.2 6.3 6.3 6.3 6.1 6.1 6.2 6.2 6.2 6.2 6.2 6.3
5.6 5.7 5.9 5.9 5.8 5.8 5.9 5.7 5.7 5.5 5.3 5.7 5.5 5.5 5.5 5.6 5.5 5.6 5.5 5.5 5.6 5.7 5.8 5.8 5.9 6.1 6.1 6.1 6.1 6.2 6.3 6.5 6.4 6.2 6.3 6.3 6.1 6.1 6.2 6.3 6.3 6.2 6.2
5.8 5.7 5.8 5.9 5.9 5.9 5.9 5.7 5.7 5.6 5.6 5.5 5.4 5.7 5.7 5.7 5.7 5.7 5.8 5.6 5.6 5.6 5.7 6.0 6.1 6.1 6.1 6.2 6.0 6.1 6.1 6.1 6.4 6.5 6.5 6.6 6.4 6.2 6.3 6.4 6.3 6.3 6.3
5.8 5.8 5.9 5.9 5.8 6.0 5.9 5.7 5.6 5.6 5.7 5.6 5.7 5.7 5.6 5.7 5.7 5.7 5.7 5.7 5.6 5.6 5.7 5.8 6.0 6.0 6.0 6.1 6.1 6.2 6.2 6.2 6.4 6.6 6.5 6.6 6.5 6.4 6.5 6.5 6.5 6.5 6.5
6.0 5.9 5.9 6.0 6.0 6.0 5.9 5.8 5.7 5.7 5.6 5.6 5.7 5.7 5.7 5.6 5.7 5.7 5.6 5.7 5.9 5.7 5.7 5.7 5.7 5.6 5.9 6.0 6.0 6.1 6.1 6.3 6.3 6.4 6.5 6.3 6.4 6.4 6.4 6.7 6.5 6.4 6.3
6.1 6.1 6.1 6.0 6.0 5.9 5.8 5.7 5.8 5.7 5.8 5.7 5.5 5.5 5.6 5.6 5.6 5.7 5.7 5.7 5.8 5.7 5.8 5.8 5.6 5.5 5.5 5.8 5.8 5.7 5.9 6.1 6.2 6.3 6.2 6.1 6.3 6.2 6.1 6.2 6.4 6.5 6.5
6.2 6.1 6.2 6.1 6.0 5.9 5.8 5.7 5.6 5.7 5.6 5.6 5.6 5.6 5.4 5.5 5.6 5.6 5.6 5.7 5.6 5.8 5.8 5.7 5.4 5.4 5.5 5.4 5.6 5.6 5.6 5.8 5.9 6.0 6.0 6.1 6.3 6.1 6.2 6.3 6.2 6.3 6.3
6.2 6.1 6.1 6.1 6.0 5.9 5.9 5.7 5.6 5.6 5.7 5.5 5.5 5.6 5.5 5.6 5.5 5.5 5.4 5.5 5.4 5.5 5.6 5.6 5.6 5.5 5.5 5.5 5.5 5.5 5.4 5.5 5.6 5.8 6.0 6.1 5.9 6.0 6.0 6.2 6.1 6.1 6.1
6.4 6.3 6.1 6.0 6.0 5.9 5.9 5.9 5.7 5.6 5.5 5.6 5.6 5.6 5.6 5.6 5.6 5.5 5.4 5.4 5.4 5.5 5.7 5.5 5.6 5.6 5.5 5.5 5.5 5.3 5.4 5.5 5.6 5.5 5.6 5.7 5.8 5.7 5.6 5.9 5.9 6.0 6.0
6.5 6.4 6.3 6.2 6.0 5.9 5.9 5.8 5.8 5.8 5.6 5.5 5.6 5.7 5.6 5.7 5.7 5.7 5.7 5.5 5.4 5.4 5.4 5.3 5.6 5.6 5.3 5.4 5.5 5.6 5.6 5.4 5.4 5.3 5.3 5.2 5.2 5.2 5.3 5.5 5.9 6.1 6.0
6.6 6.5 6.5 6.3 6.3 6.2 6.0 6.0 6.0 5.9 5.8 5.6 5.6 5.6 5.7 5.7 5.7 5.7 5.7 5.6 5.6 5.5 5.3 5.2 5.2 5.2 5.3 5.1 5.1 4.9 5.0 4.9 4.9 4.9 5.0 5.0 5.0 4.9 5.0 5.1 5.3 5.7 5.8
6.7 6.5 6.4 6.4 6.3 6.4 6.3 6.3 6.3 6.1 6.0 5.9 5.9 5.8 5.7 5.8 5.8 5.9 5.8 5.6 5.6 5.5 5.4 5.5 5.3 5.2 5.1 5.3 5.2 5.2 5.0 5.0 5.1 4.9 4.9 4.8 4.9 4.8 4.8 4.9 5.0 5.2 5.4
6.5 6.4 6.4 6.3 6.4 6.4 6.3 6.3 6.4 6.3 6.1 6.1 6.0 6.0 5.8 5.7 5.9 5.8 6.0 5.9 5.8 5.7 5.7 5.8 5.6 5.4 5.3 5.3 5.0 5.1 5.0 5.0 5.1 5.1 5.1 4.9 4.8 4.9 4.8 4.7 4.8 5.0 5.0
6.7 6.6 6.4 6.2 6.1 6.2 6.4 6.5 6.4 6.5 6.3 6.0 6.0 6.0 5.9 5.8 5.8 5.9 6.0 6.0 6.1 6.1 5.9 6.0 5.8 5.7 5.5 5.3 5.0 5.0 4.9 4.8 4.9 5.0 5.0 5.1 5.0 5.0 4.9 5.0 4.9 4.7 5.0
7.1 6.9 6.8 6.5 6.3 6.0 5.9 5.9 6.2 6.3 6.3 6.2 6.2 6.2 6.2 6.1 5.8 5.8 6.0 5.9 6.1 6.1 6.1 5.9 5.8 5.8 5.7 5.5 5.4 5.1 5.1 4.9 4.9 4.9 5.0 5.2 5.2 5.1 5.0 5.2 4.8 4.6 4.7
7.4 7.0 6.8 6.6 6.4 6.1 5.9 6.0 5.9 6.1 6.3 6.3 6.2 6.3 6.3 6.1 6.0 5.9 5.9 6.0 6.1 6.1 6.1 6.0 5.9 5.7 5.6 5.4 5.2 5.3 5.2 5.1 5.1 5.2 5.0 5.1 5.1 5.2 5.2 5.0 4.9 4.7 4.8
7.7 7.6 7.2 6.8 6.5 6.2 6.0 6.0 6.1 6.0 5.9 6.2 6.2 6.1 6.1 6.2 6.1 6.3 6.2 6.2 6.1 6.2 6.1 6.2 6.2 5.9 5.8 5.4 5.4 5.4 5.3 5.2 5.1 5.1 5.1 5.2 5.3 5.2 5.0 4.9 4.9 4.9 4.7
7.7 7.6 7.5 7.1 6.7 6.4 6.1 6.1 6.0 5.8 5.7 5.7 6.0 6.1 6.2 6.1 6.1 6.1 6.3 6.3 6.2 6.2 6.1 6.1 6.1 5.9 5.7 5.6 5.4 5.4 5.5 5.4 5.3 5.3 5.3 5.2 5.1 5.2 5.2 5.0 5.0 5.0 4.8
8.1 7.9 7.8 7.5 7.1 6.6 6.4 6.1 5.9 5.7 5.6 5.8 5.9 6.0 6.1 6.1 6.1 6.1 6.1 6.3 6.2 6.2 6.2 6.1 6.1 6.1 5.8 5.5 5.4 5.7 5.6 5.7 5.7 5.7 5.5 5.2 5.2 4.9 5.0 4.9 4.9 4.9 5.0
8.1 8.1 7.9 7.7 7.5 7.2 6.8 6.4 6.3 6.1 5.7 5.7 5.8 5.8 5.8 5.9 6.0 6.0 6.0 6.1 6.2 6.1 6.2 6.3 6.2 6.0 5.9 5.7 5.6 5.8 5.8 5.7 5.7 5.8 5.8 5.5 5.4 5.2 5.0 5.2 5.3 5.1 5.1
Wind_Speed
12 16 9 7 7 8 9 10 12 12 11 12 12 11 10 10 8 9 11 13 14 15 14 14 15 19 17 18 18 18 18 17 19 19 18 19 18 17 16 15 19 20 18
17 18 11 9 8 8 10 11 12 13 12 11 10 9 10 9 7 8 11 12 13 13 14 16 15 17 17 17 17 17 17 16 17 18 18 17 16 14 12 14 18 19 19
15 18 14 9 10 10 10 11 12 12 11 11 9 8 8 8 7 11 12 11 12 13 14 17 16 16 16 16 16 15 16 15 16 14 15 16 14 13 15 15 17 16 17
17 17 15 10 10 10 10 10 11 11 10 10 8 7 6 8 9 11 11 11 13 14 15 15 16 15 15 14 14 14 17 15 11 11 13 16 16 13 14 13 16 15 16
15 16 17 12 11 10 9 9 10 11 10 8 7 6 6 7 9 11 11 12 13 16 16 16 15 15 14 12 13 14 15 11 4 5 12 13 14 14 14 13 13 13 15
14 16 16 13 11 10 8 9 9 9 10 8 9 7 7 8 10 10 11 11 12 14 13 15 14 13 13 13 13 14 13 8 6 11 10 7 16 11 13 14 13 13 14
14 16 15 12 11 10 9 8 9 9 12 12 11 8 8 10 10 10 11 12 12 13 12 11 12 12 13 12 11 12 10 1 11 11 10 13 13 11 13 13 12 12 12
13 16 17 13 11 10 9 9 9 10 10 10 11 9 9 9 10 10 10 11 10 11 11 10 9 9 9 10 11 11 8 2 8 10 10 13 11 11 12 12 11 11 11
13 14 16 16 12 9 9 9 8 9 8 8 8 8 9 9 10 10 9 11 10 10 9 7 9 7 8 10 11 10 7 3 7 4 10 14 7 10 11 11 10 10 9
11 12 11 13 12 9 11 8 9 8 8 8 9 7 9 10 10 9 10 9 10 10 10 11 10 9 10 12 11 9 8 5 6 8 3 13 8 9 10 11 10 10 9
9 10 12 11 10 8 9 11 10 9 9 9 11 10 10 11 10 10 12 8 9 9 11 10 10 10 10 10 8 8 11 6 6 3 11 10 7 7 9 9 8 9 8
12 10 9 9 10 10 8 11 8 9 9 10 11 11 7 8 8 10 11 10 9 10 10 9 7 6 8 10 7 8 4 5 4 4 10 9 7 7 8 7 6 7 8
12 9 10 8 7 9 9 9 9 7 8 7 11 9 12 9 10 8 10 7 12 10 11 10 7 5 6 5 8 4 5 5 4 4 10 6 4 5 6 6 6 5 7
12 11 11 11 9 7 9 8 10 6 8 13 8 9 9 8 6 6 1 6 3 6 5 3 4 5 4 4 4 2 1 2 1 2 10 6 5 6 6 6 6 6 6
12 11 11 10 8 8 6 7 7 7 6 8 9 8 7 7 8 8 8 6 3 4 6 4 7 3 1 3 3 1 3 2 1 1 2 7 4 3 2 4 4 6 6
11 12 11 10 10 9 7 6 6 7 6 6 8 9 5 5 5 4 6 6 4 5 5 5 5 2 1 1 3 5 2 1 3 3 4 3 5 5 10 5 6 7 7
12 11 11 11 12 10 8 8 7 8 9 8 7 8 6 6 6 3 5 5 5 4 4 8 7 5 3 4 1 3 0 3 5 4 2 4 2 6 8 13 9 8 10
11 12 12 10 11 11 9 9 7 8 8 8 8 9 8 6 4 6 5 5 5 5 6 6 5 2 2 3 2 2 5 4 5 3 5 4 5 4 9 11 12 12 11
12 12 12 11 11 10 9 9 8 8 8 8 9 9 10 8 9 6 6 6 6 7 6 6 4 4 4 6 4 2 3 8 4 7 8 3 10 8 5 6 5 9 9
13 12 12 11 11 10 7 7 7 7 8 8 9 9 10 10 10 9 6 6 8 6 4 6 5 5 4 1 3 4 6 9 8 8 8 6 10 4 3 5 6 4 8
14 14 14 14 13 10 9 8 7 7 7 7 9 8 9 10 10 10 8 6 8 6 7 5 6 7 5 3 1 5 6 9 6 6 10 7 5 9 14 14 11 9 7
16 15 14 14 14 12 9 8 7 6 7 7 9 9 11 11 12 11 9 6 7 7 6 6 7 5 4 5 2 1 2 1 2 1 1 5 8 12 8 15 14 13 13
17 17 16 16 16 14 12 8 7 5 6 7 7 7 11 13 13 13 11 10 7 6 6 7 7 8 4 2 4 4 2 1 3 2 6 6 8 6 11 13 14 15 15
19 17 17 16 15 15 15 11 12 9 9 9 8 8 7 12 14 14 13 11 9 7 5 6 6 7 5 5 2 5 9 7 3 3 5 4 5 7 8 11 14 15 16
19 18 17 17 16 15 16 14 11 12 9 7 6 7 7 7 12 14 14 12 10 9 7 7 6 7 5 5 6 2 8 6 8 6 8 2 2 0 5 9 12 15 18
18 18 17 17 18 17 17 17 16 14 13 9 8 7 7 7 7 13 13 13 12 10 8 7 8 9 8 7 6 8 6 5 5 5 5 4 4 5 6 5 11 14 16
Wind_Direction
152 135 153 132 105 97 101 94 104 105 111 114 116 119 118 103 90 108 104 106 100 100 111 108 102 129 119 113 114 112 113 110 111 108 105 104 107 107 109 121 128 106 115
145 140 148 138 119 109 108 100 100 107 110 109 104 94 89 102 107 105 105 105 109 113 111 103 101 114 113 115 114 113 114 113 109 108 106 105 103 104 98 92 89 111 113
139 137 151 142 127 112 110 107 113 113 115 111 98 88 76 100 97 102 99 110 120 116 111 109 107 106 110 112 122 115 118 114 115 127 140 105 104 106 102 99 111 110 110
139 142 140 136 129 119 116 112 113 117 118 113 109 97 93 95 102 95 104 107 107 109 104 107 103 110 114 112 113 114 106 104 129 165 127 114 107 101 100 103 101 111 117
142 140 121 132 135 129 123 119 112 125 126 129 128 110 88 100 109 104 104 106 107 106 107 111 117 110 104 108 115 113 103 107 160 117 88 94 108 108 112 113 113 107 109
142 126 129 137 138 138 133 119 118 107 120 140 145 121 109 105 107 102 107 107 103 111 113 116 108 107 106 103 105 107 109 138 183 104 96 87 93 117 119 111 105 105 109
142 131 144 150 149 142 137 124 117 110 116 116 132 120 117 103 101 106 105 102 100 108 118 111 112 103 95 102 105 107 116 208 99 126 142 94 102 110 105 105 108 113 115
141 141 134 151 147 139 131 118 121 113 121 130 118 116 115 109 103 102 107 107 105 106 107 110 109 110 110 104 103 107 123 165 121 82 111 97 104 103 103 104 101 99 100
142 129 146 147 143 140 131 131 122 121 126 132 132 127 124 119 110 102 108 116 110 105 94 107 97 91 102 122 115 115 110 26 104 108 114 118 119 117 112 109 112 114 112
143 148 138 142 151 151 143 139 132 125 128 139 134 134 133 119 120 108 122 109 111 104 88 97 89 93 110 122 121 124 133 188 95 126 51 102 129 124 121 117 119 115 126
160 156 155 147 147 142 139 128 135 131 130 140 140 141 165 130 143 144 80 116 116 112 97 98 91 88 114 120 126 135 191 97 151 109 108 122 141 129 127 120 121 122 119
162 168 148 153 153 145 145 144 143 130 138 154 149 151 136 131 98 109 119 125 124 122 109 99 83 134 173 125 138 182 186 110 168 158 100 139 160 139 126 131 122 119 118
164 163 159 157 173 149 130 157 151 150 138 138 147 163 137 144 156 140 131 159 146 175 162 166 162 100 64 111 180 143 117 199 131 160 115 153 144 154 142 145 136 134 118
168 173 171 159 168 154 149 173 143 169 155 140 154 153 154 171 145 95 74 127 194 157 109 110 117 77 96 77 91 95 178 293 197 128 133 180 169 173 165 161 151 151 140
178 179 178 165 169 159 178 160 164 143 187 140 164 160 166 153 167 181 142 199 155 129 139 153 67 39 44 68 20 126 322 312 299 219 322 163 200 161 160 184 185 175 169
185 181 178 182 177 180 180 177 173 170 161 157 169 154 177 171 177 183 163 165 166 173 137 87 130 148 194 28 34 9 51 25 295 318 331 123 195 176 169 220 233 204 192
188 183 185 190 186 190 185 183 192 181 165 169 165 162 182 205 169 181 199 206 170 164 177 176 188 189 161 249 34 351 24 309 245 225 230 244 231 196 190 192 226 232 210
191 189 193 194 194 187 190 180 196 190 176 177 168 172 181 188 194 195 183 205 176 197 195 196 225 162 172 160 160 15 303 280 258 255 246 250 248 241 197 211 206 221 220
198 189 193 197 200 190 194 195 200 188 207 186 185 191 178 191 196 203 215 182 204 221 207 219 239 175 212 177 163 178 261 270 224 279 310 233 241 218 217 206 216 224 228
192 190 191 197 200 196 193 211 203 197 205 201 199 198 178 202 200 214 213 201 208 229 243 230 212 233 236 219 153 227 224 246 230 223 229 233 275 312 230 254 217 209 230
196 195 191 190 189 192 199 201 203 205 201 211 216 203 203 218 210 213 236 205 221 236 230 237 229 231 239 103 90 291 283 267 241 234 230 198 189 263 201 238 244 242 244
199 203 199 194 189 195 196 207 213 210 211 215 217 216 223 223 220 225 234 228 220 244 233 242 247 263 245 153 144 116 280 95 251 28 304 194 194 221 284 213 231 231 240
204 202 204 199 191 194 201 195 198 217 230 216 226 224 220 229 230 227 224 242 227 228 235 244 239 248 261 104 220 272 311 259 303 205 211 204 201 207 230 246 239 227 231
205 201 206 204 200 194 196 196 206 211 219 218 224 227 236 220 229 228 227 225 231 247 249 235 232 237 235 227 196 242 254 274 285 301 206 159 216 208 229 241 242 218 216
202 202 201 201 203 203 196 210 200 221 224 233 226 238 233 248 230 226 224 223 226 233 225 252 238 235 238 247 253 179 237 240 240 244 291 159 7 252 222 254 239 213 226
202 202 198 199 204 203 202 205 210 215 224 230 221 238 235 235 217 225 227 226 229 235 236 234 231 232 241 250 239 253 248 240 252 253 276 278 243 253 235 213 245 234 229